This is the latest recevied weather packets stored in our database for station/object KC3QLX. If no packets are shown the sender has not sent any weather packets the latest 10 day(s).
| Time | Temp. | Humidity | Pressure | Rain* | Wind** | Luminosity | Snow |
|---|---|---|---|---|---|---|---|
| 1777956859 | 13.33° C | 72% | 1009.3 hPa | 0 mm | - | 0 W/m² | - |
| 1777956556 | 14.44° C | 71% | 1009.3 hPa | 0 mm | - | 0 W/m² | - |
| 1777956253 | 13.89° C | 68% | 1009.2 hPa | 0 mm | - | 0 W/m² | - |
| 1777955949 | 13.89° C | 71% | 1009.5 hPa | 0 mm | - | 0 W/m² | - |
| 1777955646 | 13.89° C | 70% | 1009.1 hPa | 0 mm | - | 0 W/m² | - |
| 1777955342 | 13.89° C | 69% | 1009 hPa | 0 mm | - | 0 W/m² | - |
| 1777955039 | 14.44° C | 67% | 1009.1 hPa | 0 mm | - | 0 W/m² | - |
| 1777954736 | 14.44° C | 66% | 1009.3 hPa | 0 mm | - | 0 W/m² | - |
| 1777954433 | 14.44° C | 66% | 1009.1 hPa | 0 mm | - | 0 W/m² | - |
| 1777954130 | 15° C | 65% | 1009.1 hPa | 0 mm | - | 0 W/m² | - |
| 1777953828 | 15° C | 64% | 1009.2 hPa | 0 mm | - | 0 W/m² | - |
| 1777953524 | 15° C | 62% | 1009.2 hPa | 0 mm | - | 0 W/m² | - |
| 1777953220 | 15.56° C | 63% | 1009.1 hPa | 0 mm | - | 0 W/m² | - |
| 1777952918 | 15.56° C | 62% | 1009.4 hPa | 0 mm | - | 0 W/m² | - |
| 1777952614 | 15° C | 62% | 1009.1 hPa | 0 mm | - | 0 W/m² | - |
| 1777952311 | 15° C | 64% | 1009.1 hPa | 0 mm | - | 0 W/m² | - |
| 1777952008 | 15° C | 64% | 1009 hPa | 0 mm | - | 0 W/m² | - |
| 1777951706 | 15° C | 63% | 1009 hPa | 0 mm | - | 0 W/m² | - |
| 1777951402 | 15.56° C | 61% | 1008.9 hPa | 0 mm | - | 0 W/m² | - |
| 1777951100 | 16.11° C | 59% | 1009.2 hPa | 0 mm | - | 0 W/m² | - |
| 1777950796 | 16.11° C | 57% | 1009 hPa | 0 mm | - | 0 W/m² | - |
| 1777950493 | 16.11° C | 59% | 1009.1 hPa | 0 mm | - | 0 W/m² | - |
| 1777950190 | 16.67° C | 58% | 1009.2 hPa | 0 mm | - | 0 W/m² | - |
| 1777949885 | 16.67° C | 55% | 1009 hPa | 0 mm | - | 0 W/m² | - |
| 1777949583 | 16.67° C | 56% | 1008.7 hPa | 0 mm | - | 0 W/m² | - |
* Rain latest hour (hover to see other rain measurements)
** Current wind speed in m/s (hover to see current wind gust speed)